Preview of NWS' New Version of Forecast
This preview is not operational and should not be used for support decisions.

Regional Weather Roundup (RWR)

Issued by National Weather Service (NWS)

                            
000
ASUS46 KPQR 181310
RWROR 

OREGON REGIONAL WEATHER ROUNDUP
NATIONAL WEATHER SERVICE PORTLAND OR
600 AM PDT THU APR 18 2019

NOTE: "FAIR" INDICATES FEW OR NO CLOUDS BELOW 12,000 FEET WITH
NO SIGNIFICANT WEATHER AND/OR OBSTRUCTIONS TO VISIBILITY.

ORZ001>013-181400-
NORTHWEST OREGON

  
CITY           SKY/WX    TMP DP  RH WIND       PRES   REMARKS
ASTORIA        CLOUDY    48  46  93 SE3       30.23F                  
TILLAMOOK      CLOUDY    46  45  93 CALM      30.26F                  
NEWPORT        PTCLDY    48  46  93 E5        30.27F                  
PORTLAND       MOCLDY    48  44  86 CALM      30.28S                  
VANCOUVER WA   MOCLDY    45  43  93 CALM      30.27F                  
SCAPPOOSE      PTCLDY    47  44  90 CALM      30.27F                  
HILLSBORO      PTCLDY    45  43  93 CALM      30.26F                  
AURORA         CLOUDY    50  47  89 CALM      30.27F                  
MCMINNVILLE    MOCLDY    46  44  93 CALM      30.26S                  
SALEM          PTCLDY    49  46  90 W3        30.26S                  
CORVALLIS      CLEAR     46  45  96 CALM      30.27F                  
EUGENE         PTCLDY    45  43  93 CALM      30.26F                  
$$

ORZ021-028-181400-
SOUTHWEST OREGON

  
CITY           SKY/WX    TMP DP  RH WIND       PRES   REMARKS
NORTH BEND     LGT RAIN  48  48 100 SE5       30.26S VSB 1/2          
BROOKINGS      CLEAR     50  49  96 CALM      30.20F                  
ROSEBURG       CLEAR     49  46  90 CALM      30.26F                  
SEXTON SUMMIT  CLEAR     51  42  71 SE8       30.28F                  
GRANTS PASS    FAIR      45  43  93 CALM      30.30S                  
MEDFORD        CLEAR     47  43  86 CALM      30.28S                  
$$

ORZ014>016-041-181400-
COLUMBIA GORGE

  
CITY           SKY/WX    TMP DP  RH WIND       PRES   REMARKS
TROUTDALE      PTCLDY    45  42  89 E3        30.27F                  
HOOD RIVER     PTCLDY    43  41  93 MISG      30.29S                  
THE DALLES     PTCLDY    46  43  89 CALM      30.27S                  
$$

ORZ029>031-041-044-049-050-061>064-502-503-505>511-181400-
EASTERN OREGON

  
CITY           SKY/WX    TMP DP  RH WIND       PRES   REMARKS
MADRAS         CLEAR     39  37  93 SE7       30.30F                  
REDMOND        CLEAR     39  33  79 SE7       30.30F                  
BEND           CLEAR     41  36  81 SE6       30.31S                  
PRINEVILLE     CLEAR     36  34  93 CALM      30.31F                  
KLAMATH FALLS  CLEAR     36  34  92 CALM      30.32S                  
LAKEVIEW       CLEAR     34  32  92 NW9       30.34F                  
HERMISTON      PTCLDY    46  40  79 S7        30.24F                  
PENDLETON      CLEAR     43  38  82 S9        30.25F                  
JOHN DAY       CLEAR     40  36  83 SE7       30.34R                  
MEACHAM        CLEAR     29  26  89 CALM      30.30S                  
LA GRANDE      FOG       33  32  96 CALM      30.33S VSB 1            
BAKER CITY     FOG       31  30  96 CALM      30.33S VSB 3/4          
BURNS          CLEAR     36  32  85 CALM      30.34R                  
ROME             N/A     35  33  92 W6        30.32S                  
ONTARIO        CLEAR     39  35  86 W5        30.34S                  
$$